Вернуться в каталог

STARLINK-5310

АктивенСвязьVLEO
NORAD 55272·PAYLOAD·🇺🇸 United States

Запущен Jan 19, 2023 с Vandenberg Space Force Base

Loading…

Ближайшие Пролёты (ближайшие 24 часа)

TLE

СвежийSource: CelesTrak SupGP

Эпоха: Sep 15, 2026, 03:02 UTC

1 55272C 23010D   26258.12687500 -.00012665  00000+0 -10612-2 0  2580
2 55272  69.9992 286.8268 0003042 268.9859  18.1271 14.98340998    19

Отслеживайте STARLINK-5310 в реальном времени с AllMySat

Download on the App Store